x

First Landing (44064) Weather Station

12:50pm - Sun 23rd Apr 2017 All times are EDT. -4 hours from GMT.

  • Wind
    18mph, 22mph gusts
  • Air Temp 55°f
  • Sea Pressure 1019.9mb
  • First Landing
  • First Landing

More Historic Weather Station data

Upgrade to MSW Pro to gain access to the past 30 days of data for over 8000 Wavebouys and Weather Stations around the globe.

Join Pro

Comparision Forecast

View Surf forecast
   
Sun 04/23 12:50pm  -   -  18 22 mph 1019.9mb - 55f
12:40pm  -   -  18 22 mph 1019.7mb - 55f
12:30pm  -   -  20 22 mph 1019.5mb - 56f
12:20pm  -   -  18 25 mph 1019.6mb - 56f
12:10pm  -   -  18 22 mph 1019.5mb - 56f
12:00pm 2.5ft 3s 18 22 mph 1019.4mb 61f 56f
11:50am  -   -  18 22 mph 1019.4mb - 56f
11:40am  -   -  20 22 mph 1019.2mb - 56f
11:30am  -   -  20 22 mph 1019.2mb - 56f
11:20am  -   -  18 22 mph 1019.1mb - 56f
11:10am  -   -  18 22 mph 1019.3mb - 55f
11:00am 2.5ft 4s 18 22 mph 1019.3mb 61f 55f
10:50am  -   -  18 22 mph 1019.3mb - 55f
10:40am  -   -  18 22 mph 1019.1mb - 55f
10:30am  -   -  18 20 mph 1018.8mb - 55f
10:20am  -   -  18 22 mph 1018.6mb - 55f
10:10am  -   -  18 20 mph 1018.5mb - 55f
10:00am 2.5ft 4s 18 20 mph 1018.7mb 60f 55f
9:50am  -   -  18 20 mph 1018.7mb - 55f
9:40am  -   -  16 20 mph 1018.4mb - 56f
9:30am  -   -  16 20 mph 1018.3mb - 56f
9:20am  -   -  18 20 mph 1018.2mb - 56f
9:10am  -   -  18 20 mph 1018.2mb - 56f
9:00am 3ft 4s 18 22 mph 1017.9mb 60f 56f
8:50am  -   -  18 22 mph 1017.6mb - 56f
8:40am  -   -  20 22 mph 1017.7mb - 56f
8:30am  -   -  16 20 mph 1017.8mb - 56f
8:20am  -   -  16 25 mph 1017.8mb - 56f
8:10am  -   -  20 22 mph 1017.6mb - 56f
8:00am 3ft 4s 18 22 mph 1017.6mb 60f 56f
7:50am  -   -  18 22 mph 1017.7mb - 56f
7:40am  -   -  20 25 mph 1017.4mb - 56f
7:30am  -   -  20 27 mph 1017mb - 56f
7:20am  -   -  22 25 mph 1016.9mb - 56f
7:10am  -   -  20 25 mph 1017mb - 56f
7:00am 2.5ft 3s 20 25 mph 1016.8mb 61f 56f
6:50am  -   -  20 22 mph 1016.6mb - 56f
6:40am  -   -  20 22 mph 1016.3mb - 56f
6:30am  -   -  18 22 mph 1016.2mb - 56f
6:20am  -   -  18 22 mph 1016.2mb - 56f
6:10am  -   -  16 18 mph 1016.5mb - 56f
6:00am 2.5ft 4s 16 18 mph 1016.8mb 61f 56f
5:50am  -   -  13 16 mph 1016.8mb - 56f
5:40am  -   -  13 18 mph 1016.5mb - 56f
5:30am  -   -  16 20 mph 1015.7mb - 56f
5:20am  -   -  18 22 mph 1015.7mb - 56f
5:10am  -   -  18 20 mph 1015.7mb - 56f
5:00am 2.5ft 3s 18 20 mph 1015.7mb 61f 56f
4:50am  -   -  18 22 mph 1015.6mb - 55f
4:40am  -   -  18 22 mph 1015.2mb - 55f
4:30am  -   -  20 25 mph 1014.7mb - 55f
4:20am  -   -  18 22 mph 1015.3mb - 56f
4:10am  -   -  18 22 mph 1015.5mb - 55f
4:00am 2.5ft 3s 18 22 mph 1015.5mb 62f 56f
3:50am  -   -  18 20 mph 1015.4mb - 56f
3:40am  -   -  16 18 mph 1015.5mb - 56f
3:30am  -   -  16 20 mph 1015.4mb - 56f
3:20am  -   -  16 18 mph 1015.6mb - 56f
3:10am  -   -  16 18 mph 1015.5mb - 56f
3:00am 2.5ft 3s 18 22 mph 1015.4mb 62f 56f
2:50am  -   -  16 18 mph 1015.8mb - 56f
2:40am  -   -  16 18 mph 1015.9mb - 56f
2:30am  -   -  13 18 mph 1016.2mb - 56f
2:20am  -   -  16 18 mph 1015.9mb - 56f
2:10am  -   -  16 18 mph 1015.8mb - 56f
2:00am 2.5ft 4s 16 18 mph 1015.8mb 61f 56f
1:50am  -   -  16 18 mph 1015.7mb - 56f
1:40am  -   -  16 18 mph 1015.7mb - 56f
1:30am  -   -  16 20 mph 1015.8mb - 56f
1:20am  -   -  16 20 mph 1015.9mb - 56f
1:10am  -   -  18 22 mph 1016mb - 56f
1:00am 2.5ft 4s 18 22 mph 1015.7mb 61f 56f
12:50am  -   -  18 22 mph 1015.6mb - 56f
12:40am  -   -  18 22 mph 1015.9mb - 56f
12:30am  -   -  16 20 mph 1016.1mb - 55f
12:20am  -   -  18 20 mph 1015.9mb - 56f
12:10am  -   -  16 20 mph 1015.9mb - 56f
12:00am 2.5ft 4s 16 18 mph 1015.9mb 59f 56f
Sat 04/22 11:50pm  -   -  16 18 mph 1016mb - 56f
11:40pm  -   -  18 22 mph 1015.7mb - 56f
11:30pm  -   -  18 20 mph 1015.8mb - 56f
11:20pm  -   -  16 22 mph 1016mb - 56f
11:10pm  -   -  18 22 mph 1015.6mb - 56f
11:00pm 3.5ft 4s 18 22 mph 1015.5mb 58f 56f
10:50pm  -   -  18 20 mph 1015.6mb - 56f
10:40pm  -   -  18 22 mph 1015.4mb - 56f
10:30pm  -   -  20 25 mph 1015.1mb - 56f
10:20pm  -   -  20 22 mph 1015.1mb - 56f
10:10pm  -   -  20 25 mph 1015mb - 56f
10:00pm 3.5ft 4s 20 25 mph 1014.5mb 57f 56f
9:50pm  -   -  20 22 mph 1014.9mb - 56f
9:40pm  -   -  18 22 mph 1014.7mb - 56f
9:30pm  -   -  20 27 mph 1014.2mb - 56f
9:20pm  -   -  20 25 mph 1014.2mb - 56f
9:10pm  -   -  20 25 mph 1013.9mb - 56f
9:00pm 3.5ft 4s 20 25 mph 1013.6mb 57f 56f
8:50pm  -   -  18 22 mph 1013.6mb - 56f
8:40pm  -   -  20 27 mph 1013.1mb - 56f
8:30pm  -   -  20 25 mph 1013.1mb - 56f
8:20pm  -   -  20 22 mph 1013.3mb - 56f
8:10pm  -   -  16 20 mph 1013.4mb - 56f
8:00pm 3.5ft 4s 18 22 mph 1013.4mb 58f 56f
7:50pm  -   -  20 25 mph 1013.4mb - 56f
7:40pm  -   -  18 22 mph 1013.7mb - 56f
7:30pm  -   -  20 29 mph 1013.6mb - 56f
7:20pm  -   -  25 29 mph 1013.1mb - 56f
7:10pm  -   -  25 31 mph 1012.5mb - 56f
7:00pm 3.5ft 4s 25 29 mph 1012.4mb 59f 56f
6:50pm  -   -  25 29 mph 1012.1mb - 56f
6:40pm  -   -  25 29 mph 1011.8mb - 56f
6:30pm  -   -  25 31 mph 1011.5mb - 56f
6:20pm  -   -  25 29 mph 1011.6mb - 56f
6:10pm  -   -  22 27 mph 1012mb - 56f
6:00pm 3.5ft 3s 22 27 mph 1011.9mb 61f 56f
5:50pm  -   -  22 29 mph 1011.6mb - 57f
5:40pm  -   -  22 27 mph 1011.6mb - 57f
5:30pm  -   -  22 27 mph 1011.6mb - 57f
5:20pm  -   -  22 27 mph 1012mb - 57f
5:10pm  -   -  22 27 mph 1011.5mb - 57f
5:00pm 2.5ft 3s 22 27 mph 1011.2mb 62f 57f
4:50pm  -   -  25 27 mph 1010.9mb - 57f
4:40pm  -   -  22 27 mph 1011mb - 58f
4:30pm  -   -  20 27 mph 1011mb - 58f
4:20pm  -   -  20 25 mph 1010.6mb - 58f
4:10pm  -   -  20 25 mph 1010.7mb - 58f
4:00pm 2.5ft 3s 20 22 mph 1010.6mb 63f 59f
3:50pm  -   -  20 25 mph 1010.5mb - 58f
3:40pm  -   -  20 22 mph 1010.7mb - 59f
3:30pm  -   -  20 22 mph 1010.9mb - 59f
3:20pm  -   -  18 22 mph 1011.1mb - 59f
3:10pm  -   -  18 22 mph 1011.2mb - 60f
3:00pm 2ft 3s 18 20 mph 1011.2mb 64f 60f
2:50pm  -   -  18 20 mph 1011.3mb - 60f
2:40pm  -   -  18 20 mph 1011.2mb - 61f
2:30pm  -   -  16 20 mph 1011.4mb - 61f
2:20pm  -   -  16 18 mph 1011.4mb - 61f
2:10pm  -   -  18 20 mph 1011.3mb - 61f
2:00pm 1.3ft 3s 16 18 mph 1011.4mb 64f 62f
1:50pm  -   -  13 18 mph 1011.5mb - 63f
1:40pm  -   -  13 18 mph 1011.6mb - 63f
1:30pm  -   -  13 16 mph 1011.6mb - 63f
1:20pm  -   -  13 16 mph 1011.6mb - 63f
1:10pm  -   -  11 16 mph 1011.5mb - 62f
1:00pm 1.3ft 4s 13 16 mph 1011.5mb 64f 62f
12:50pm  -   -  13 16 mph 1011.5mb - 62f
12:40pm  -   -  11 13 mph 1011.5mb - 62f
12:30pm  -   -  11 13 mph 1011.5mb - 62f
12:20pm  -   -  11
mph
1011.5mb - 62f
12:10pm  -   -  11 13 mph 1011.3mb - 62f
12:00pm 1ft 3s 11 13 mph 1011.3mb 63f 62f
11:50am  -   -  11 13 mph 1011.4mb - 62f
11:40am  -   -  11
mph
1011.4mb - 63f
11:30am  -   -  9 13 mph 1011.4mb - 63f
11:20am  -   -  9 13 mph 1011.4mb - 63f
11:10am  -   -  9 11 mph 1011.5mb - 63f
11:00am 1ft 4s 11 13 mph 1011.5mb 63f 63f
10:50am  -   -  9 13 mph 1011.4mb - 66f
10:40am  -   -  4
mph
1011.2mb - 70f
10:30am  -   -  2
mph
1011mb - 70f
10:20am  -   -  2
mph
1011mb - 71f
10:10am  -   -   -  2 mph 1011mb - 70f
10:00am 1ft 4s  -  2 mph 1010.9mb 63f 70f
9:50am  -   -  2
mph
1010.9mb - 70f
9:40am  -   -  4
mph
1011mb - 69f
9:30am  -   -  4 7 mph 1011.1mb - 69f
9:20am  -   -  7
mph
1011.1mb - 68f
9:10am  -   -  7
mph
1011mb - 68f
9:00am 1ft 5s 7
mph
1011.1mb 62f 67f
8:50am  -   -  7 9 mph 1011.1mb - 67f
8:40am  -   -  9
mph
1011.2mb - 67f
8:30am  -   -  7 9 mph 1011.2mb - 67f
8:20am  -   -  7 9 mph 1011.3mb - 67f
8:10am  -   -  9
mph
1011.2mb - 68f
8:00am 1ft 5s 11
mph
1011.1mb 62f 67f
7:50am  -   -  11
mph
1011.1mb - 67f
7:40am  -   -  9 11 mph 1011mb - 66f
7:30am  -   -  9
mph
1011mb - 66f
7:20am  -   -  9
mph
1011mb - 66f
7:10am  -   -  7 9 mph 1010.9mb - 66f
6:50am  -   -  7 9 mph 1010.7mb - 66f
6:40am  -   -  7 9 mph 1010.7mb - 66f
6:30am  -   -  7
mph
1010.6mb - 67f
6:20am  -   -  7
mph
1010.6mb - 67f
6:10am  -   -  7 9 mph 1010.5mb - 67f
6:00am 1.3ft 4s 9 11 mph 1010.6mb 63f 67f
5:50am  -   -  9
mph
1010.5mb - 67f
5:40am  -   -  7 9 mph 1010.5mb - 67f
5:30am  -   -  7
mph
1010.4mb - 67f
5:20am  -   -  7
mph
1010.4mb - 67f
5:10am  -   -  7
mph
1010.4mb - 67f
5:00am 1.6ft 3s 9 13 mph 1010.6mb 63f 67f
4:50am  -   -  13 16 mph 1010.5mb - 68f
4:40am  -   -  16 18 mph 1010.5mb - 67f
4:30am  -   -  13 18 mph 1010.7mb - 68f
4:20am  -   -  16 18 mph 1010.7mb - 69f
4:10am  -   -  16 18 mph 1010.6mb - 69f
4:00am 1.6ft 3s 16 20 mph 1010.5mb 63f 69f
3:50am  -   -  18 20 mph 1010.4mb - 69f
3:40am  -   -  18 22 mph 1010.4mb - 69f
3:30am  -   -  16 20 mph 1010.3mb - 69f
3:20am  -   -  16 18 mph 1010.3mb - 69f
3:10am  -   -  16 20 mph 1010.3mb - 69f
3:00am 1ft 3s 18 22 mph 1010.3mb 63f 70f
2:50am  -   -  18 20 mph 1010.3mb - 71f
2:40am  -   -  16 20 mph 1010.2mb - 71f
2:30am  -   -  11 13 mph 1010.2mb - 71f
2:20am  -   -  9 13 mph 1010.4mb - 69f
2:10am  -   -  7 9 mph 1010.5mb - 67f
2:00am 1ft 4s 4 7 mph 1010.7mb 63f 67f
1:50am  -   -  4 7 mph 1010.8mb - 66f
1:40am  -   -  4 7 mph 1010.9mb - 66f
1:30am  -   -  4
mph
1011mb - 66f
1:20am  -   -  7 9 mph 1011mb - 66f
1:10am  -   -  7 9 mph 1011mb - 66f
1:00am 0.7ft  -  4
mph
1011.2mb 63f 66f
12:50am  -   -  2 4 mph 1011.2mb - 66f
12:40am  -   -  4 7 mph 1011.3mb - 66f
12:30am  -   -  4 7 mph 1011.4mb - 66f
12:20am  -   -  4 7 mph 1011.5mb - 66f
12:10am  -   -  4 7 mph 1011.7mb - 66f
12:00am 0.7ft  -  4 9 mph 1011.5mb 63f 67f
Fri 04/21 11:50pm  -   -  2
mph
1011.3mb - 67f
11:40pm  -   -   -  7 mph 1011.4mb - 67f
11:30pm  -   -  2 4 mph 1011.3mb - 68f
11:20pm  -   -  2 4 mph 1011.3mb - 69f
11:10pm  -   -  4 7 mph 1011.3mb - 69f
11:00pm 0.7ft  -  7 9 mph 1011.4mb 64f 70f
10:50pm  -   -  9 11 mph 1011.3mb - 70f
10:40pm  -   -  9 11 mph 1011.3mb - 72f
10:30pm  -   -  11 18 mph 1011.3mb - 72f
10:20pm  -   -  7 20 mph 1011.1mb - 71f
10:10pm  -   -  7
mph
1010.9mb - 71f
10:00pm 1ft 5s 7 9 mph 1010.8mb 64f 71f
9:50pm  -   -  9
mph
1010.8mb - 71f
9:40pm  -   -  7
mph
1010.7mb - 71f
9:30pm  -   -  7
mph
1010.7mb - 71f
9:20pm  -   -  7
mph
1010.5mb - 71f
9:10pm  -   -  4 7 mph 1010.4mb - 71f
9:00pm 1ft 5s 7
mph
1010.2mb 64f 71f
8:50pm  -   -  7
mph
1010.1mb - 71f
8:40pm  -   -  7 9 mph 1009.9mb - 73f
8:30pm  -   -  7 9 mph 1009.8mb - 72f
8:20pm  -   -  7
mph
1009.6mb - 72f
8:10pm  -   -  7 9 mph 1009.5mb - 73f
8:00pm 1ft 4s 7
mph
1009.4mb 64f 73f
7:50pm  -   -  4
mph
1009.5mb - 73f
7:40pm  -   -  4
mph
1009.5mb - 72f
7:30pm  -   -  7
mph
1009.5mb - 70f
7:20pm  -   -  7 9 mph 1009.3mb - 71f
7:10pm  -   -  9 11 mph 1009.2mb - 73f
7:00pm 1ft 4s 9 11 mph 1009.2mb 66f 73f
6:50pm  -   -  11
mph
1009.2mb - 73f
6:40pm  -   -  11 13 mph 1009.2mb - 72f
6:30pm  -   -  11
mph
1009.3mb - 71f
6:20pm  -   -  9
mph
1009.4mb - 71f
6:10pm  -   -  9
mph
1009.4mb - 71f
6:00pm 1.3ft 4s 9 11 mph 1009.4mb 65f 71f
5:50pm  -   -  9
mph
1009.4mb - 71f
5:40pm  -   -  9 11 mph 1009.4mb - 71f
5:30pm  -   -  9 11 mph 1009.5mb - 71f
5:20pm  -   -  9 11 mph 1009.6mb - 74f
5:10pm  -   -  7 9 mph 1009.7mb - 74f
5:00pm 1.3ft 4s 9 11 mph 1009.6mb 65f 74f
4:50pm  -   -  2 7 mph 1009.6mb - 75f
4:40pm  -   -  7 11 mph 1009.8mb - 73f
4:30pm  -   -  7 9 mph 1009.8mb - 72f
4:20pm  -   -  7 9 mph 1009.7mb - 72f
4:10pm  -   -  9 11 mph 1009.8mb - 73f
4:00pm 1.3ft 4s 11
mph
1009.8mb 65f 75f
3:50pm  -   -  11 16 mph 1009.8mb - 76f
3:40pm  -   -  9 11 mph 1009.9mb - 78f
3:30pm  -   -  4 7 mph 1010mb - 79f
3:20pm  -   -  4
mph
1010.2mb - 80f
3:10pm  -   -  4 7 mph 1010.3mb - 80f
3:00pm 1ft 4s 4 7 mph 1010.5mb 64f 79f
2:50pm  -   -  2 7 mph 1010.7mb - 77f
2:40pm  -   -  2 4 mph 1010.9mb - 77f
2:30pm  -   -  2 4 mph 1011mb - 77f
2:20pm  -   -  4
mph
1011.2mb - 78f
2:10pm  -   -  4 7 mph 1011.4mb - 77f
2:00pm 1ft 4s 7
mph
1011.4mb 64f 76f
1:50pm  -   -  7
mph
1011.4mb - 76f
1:40pm  -   -  7
mph
1011.5mb - 75f
1:30pm  -   -  7
mph
1011.6mb - 75f
1:20pm  -   -  7
mph
1011.7mb - 74f
1:10pm  -   -  7 9 mph 1011.8mb - 74f
1:00pm 1ft 3s 7 9 mph 1011.9mb 63f 73f
12:50pm  -   -  7 9 mph 1012mb - 73f
12:40pm  -   -  7 9 mph 1012.1mb - 73f
12:30pm  -   -  7 9 mph 1012.2mb - 73f
12:20pm  -   -  9
mph
1012.2mb - 73f
12:10pm  -   -  9 11 mph 1012.3mb - 73f
12:00pm 1ft 3s 9 11 mph 1012.4mb 62f 73f
11:50am  -   -  9 11 mph 1012.5mb - 73f
11:40am  -   -  11
mph
1012.6mb - 72f
11:30am  -   -  11 13 mph 1012.7mb - 72f
11:20am  -   -  11 13 mph 1012.7mb - 72f
11:10am  -   -  11
mph
1012.6mb - 71f
11:00am 1ft 3s 9 11 mph 1012.7mb 62f 71f
10:50am  -   -  9 11 mph 1012.7mb - 71f
10:40am  -   -  9 11 mph 1012.8mb - 70f
10:30am  -   -  11 13 mph 1012.9mb - 70f
10:20am  -   -  13 16 mph 1012.9mb - 70f
10:10am  -   -  13 16 mph 1012.9mb - 70f
10:00am 1.3ft 3s 13 16 mph 1013mb 62f 69f
9:50am  -   -  11 16 mph 1012.9mb - 70f
9:40am  -   -  13 16 mph 1012.8mb - 70f
9:30am  -   -  13 16 mph 1012.8mb - 69f
9:20am  -   -  11 16 mph 1012.9mb - 69f
9:10am  -   -  11 13 mph 1013mb - 69f
9:00am 1ft 3s 11 13 mph 1013.1mb 61f 69f
8:50am  -   -  13 16 mph 1013.2mb - 69f
8:40am  -   -  13 16 mph 1013.3mb - 69f
8:30am  -   -  11 16 mph 1013.3mb - 69f
8:20am  -   -  11 16 mph 1013.3mb - 68f
8:10am  -   -  13 16 mph 1013.2mb - 68f
8:00am 1.3ft 3s 13 16 mph 1013.2mb 61f 68f
7:50am  -   -  13 16 mph 1013.2mb - 68f
7:40am  -   -  13 16 mph 1013.2mb - 68f
7:30am  -   -  13 16 mph 1013.3mb - 68f
7:20am  -   -  16 18 mph 1013.3mb - 68f
7:10am  -   -  13 16 mph 1013.3mb - 67f
7:00am 1.3ft 3s 13 16 mph 1013.2mb 62f 67f
6:50am  -   -  16 18 mph 1013.1mb - 68f
6:40am  -   -  13 16 mph 1013.1mb - 68f
6:30am  -   -  13 16 mph 1013.1mb - 68f
6:20am  -   -  13 16 mph 1013.1mb - 68f
6:10am  -   -  11 13 mph 1013mb - 67f
6:00am 1.3ft 4s 9 11 mph 1013.1mb 62f 67f
5:50am  -   -  9 11 mph 1013mb - 67f
5:40am  -   -  9 11 mph 1013mb - 67f
5:30am  -   -  11
mph
1013mb - 67f
5:20am  -   -  11
mph
1013mb - 67f
5:10am  -   -  11 13 mph 1013.1mb - 67f
5:00am 1.3ft 3s 11
mph
1013.1mb 62f 67f
4:50am  -   -  11 13 mph 1013.1mb - 67f
4:40am  -   -  11 13 mph 1013.1mb - 68f
4:30am  -   -  11
mph
1013.1mb - 68f
4:20am  -   -  11
mph
1013mb - 68f
4:10am  -   -  11
mph
1013.1mb - 68f
4:00am 1.6ft 3s 11
mph
1013.1mb 62f 68f
3:50am  -   -  11 13 mph 1013.2mb - 68f
3:40am  -   -  11 13 mph 1013.2mb - 69f
3:30am  -   -  13 16 mph 1013.3mb - 69f
3:20am  -   -  13 16 mph 1013.2mb - 69f
3:10am  -   -  13 18 mph 1013.3mb - 69f
3:00am 1.3ft 4s 11 13 mph 1013.3mb 62f 69f
2:50am  -   -  11 13 mph 1013.4mb - 69f
2:40am  -   -  11 13 mph 1013.5mb - 68f
2:30am  -   -  7 11 mph 1013.7mb - 67f
2:20am  -   -  2 4 mph 1013.8mb - 66f
2:10am  -   -  2 4 mph 1013.9mb - 66f
2:00am 1.3ft 5s 4
mph
1014mb 62f 67f
1:50am  -   -  4 7 mph 1014.1mb - 67f
1:40am  -   -  4 7 mph 1014.2mb - 67f
1:30am  -   -  4
mph
1014.4mb - 68f
1:20am  -   -  4 7 mph 1014.5mb - 68f
1:10am  -   -  7
mph
1014.7mb - 69f
1:00am  -   -  7 9 mph 1014.9mb - 69f
12:50am  -   -  7
mph
1015mb - 70f
12:40am  -   -  4
mph
1015.1mb - 70f
12:30am  -   -   -  2 mph 1015.3mb - 69f
12:20am  -   -   -  4 mph 1015.4mb - 69f
12:10am  -   -  2 4 mph 1015.5mb - 70f
12:00am 1ft 6s 4 11 mph 1015.6mb 63f 70f
Thu 04/20 11:50pm  -   -  9 16 mph 1015.6mb - 69f
11:40pm  -   -  7 13 mph 1015.5mb - 67f
11:30pm  -   -  7 9 mph 1015.5mb - 67f
11:20pm  -   -  9
mph
1015.5mb - 67f
11:10pm  -   -  9 11 mph 1015.4mb - 67f
11:00pm 1ft 5s 7 11 mph 1015.4mb 63f 66f
10:50pm  -   -  7 9 mph 1015.4mb - 66f
10:40pm  -   -  7 9 mph 1015.5mb - 65f
10:30pm  -   -  7
mph
1015.6mb - 65f
10:20pm  -   -  4 7 mph 1015.5mb - 65f
10:10pm  -   -  4 7 mph 1015.5mb - 65f
10:00pm 1ft 5s 4
mph
1015.7mb 62f 64f
9:50pm  -   -  4
mph
1015.6mb - 64f
9:40pm  -   -  4
mph
1015.7mb - 64f
9:30pm  -   -  4
mph
1015.8mb - 64f
9:20pm  -   -  4 7 mph 1015.8mb - 64f
9:10pm  -   -  4 7 mph 1015.9mb - 64f
9:00pm 1.3ft 4s 4 7 mph 1015.9mb 62f 64f
8:50pm  -   -  7 9 mph 1015.7mb - 64f
8:40pm  -   -  7 9 mph 1015.6mb - 64f
8:30pm  -   -  9 11 mph 1015.6mb - 64f
8:20pm  -   -  9 11 mph 1015.7mb - 64f
8:10pm  -   -  9 11 mph 1015.8mb - 64f
8:00pm 1.3ft 4s 9
mph
1015.9mb 62f 64f
7:50pm  -   -  9
mph
1015.8mb - 64f
7:40pm  -   -  9
mph
1015.7mb - 64f
7:30pm  -   -  9 11 mph 1015.6mb - 64f
7:20pm  -   -  9 11 mph 1015.6mb - 65f
7:10pm  -   -  9 11 mph 1015.6mb - 65f
7:00pm 1.3ft 3s 9 11 mph 1015.6mb 63f 65f
6:50pm  -   -  11
mph
1015.6mb - 65f
6:40pm  -   -  11 13 mph 1015.6mb - 65f
6:30pm  -   -  9 11 mph 1015.6mb - 65f
6:20pm  -   -  11 13 mph 1015.6mb - 65f
6:10pm  -   -  11 13 mph 1015.6mb - 65f
6:00pm 1.3ft 3s 11 13 mph 1015.8mb 63f 65f
5:50pm  -   -  11 13 mph 1015.9mb - 65f
5:40pm  -   -  11 13 mph 1015.9mb - 65f
5:30pm  -   -  11 13 mph 1016mb - 65f
5:20pm  -   -  11 13 mph 1016mb - 65f
5:10pm  -   -  11 16 mph 1016mb - 65f
5:00pm 1.3ft 4s 11 13 mph 1015.9mb 63f 65f
4:50pm  -   -  9 11 mph 1015.9mb - 66f
4:40pm  -   -  9 11 mph 1016mb - 67f
4:30pm  -   -  7 11 mph 1015.9mb - 67f
4:20pm  -   -  7
mph
1016mb - 68f
4:10pm  -   -  7 9 mph 1016.1mb - 67f
4:00pm 1.6ft 4s 7
mph
1016.2mb 64f 67f
3:50pm  -   -  7 9 mph 1016.4mb - 68f
3:40pm  -   -  4
mph
1016.6mb - 68f
3:30pm  -   -  2 4 mph 1016.9mb - 68f
3:20pm  -   -  4 7 mph 1017mb - 67f
3:10pm  -   -  4 7 mph 1017.3mb - 67f
3:00pm 1.6ft 4s 4 7 mph 1017.5mb 63f 67f
2:50pm  -   -  7 9 mph 1017.7mb - 69f
2:40pm  -   -  7 9 mph 1017.8mb - 71f
2:30pm  -   -  7 9 mph 1017.9mb - 72f
2:20pm  -   -  9 11 mph 1018mb - 72f
2:10pm  -   -  11 13 mph 1018.1mb - 71f
2:00pm 1.3ft 4s 9 13 mph 1018.1mb 62f 71f
1:50pm  -   -  9 11 mph 1018.2mb - 71f
1:40pm  -   -  11 13 mph 1018.3mb - 70f
1:30pm  -   -  11 13 mph 1018.3mb - 69f
1:20pm  -   -  9 13 mph 1018.4mb - 69f
1:10pm  -   -  9 11 mph 1018.5mb - 68f
1:00pm 1.3ft 4s 9 11 mph 1018.6mb 61f 68f
12:50pm  -   -  9 11 mph 1018.7mb - 68f
12:40pm  -   -  9 11 mph 1018.7mb - 68f
12:30pm  -   -  9 11 mph 1018.8mb - 67f
12:20pm  -   -  9 11 mph 1019.1mb - 67f
12:10pm  -   -  9 11 mph 1019.5mb - 66f
12:00pm 1.3ft 3s 9 11 mph 1019.7mb 61f 65f
11:50am  -   -  9 11 mph 1019.6mb - 65f
11:40am  -   -  9 11 mph 1019.7mb - 65f
11:30am  -   -  9 11 mph 1019.9mb - 65f
11:20am  -   -  9 11 mph 1020.1mb - 65f
11:10am  -   -  9
mph
1020.4mb - 65f
11:00am 1ft 3s 9
mph
1020.5mb 61f 65f
10:50am  -   -  9 11 mph 1020.6mb - 65f
10:40am  -   -  9
mph
1020.8mb - 65f
10:30am  -   -  9 11 mph 1021.1mb - 65f
10:20am  -   -  7 9 mph 1021.2mb - 65f
10:10am  -   -  4 7 mph 1021.2mb - 65f
10:00am 1ft 3s 4 7 mph 1021.2mb 60f 65f
9:50am  -   -  7 9 mph 1021.2mb - 65f
9:40am  -   -  9 11 mph 1021.3mb - 65f
9:30am  -   -  9 11 mph 1021.4mb - 65f
9:20am  -   -  9 11 mph 1021.4mb - 64f
9:10am  -   -  9 11 mph 1021.5mb - 64f
9:00am 1ft 3s 7 9 mph 1021.7mb 60f 64f
8:50am  -   -  7 9 mph 1021.8mb - 64f
8:40am  -   -  7
mph
1021.9mb - 64f
8:30am  -   -  7
mph
1022mb - 64f
8:20am  -   -  9 11 mph 1021.9mb - 63f
8:10am  -   -  11 13 mph 1021.8mb - 63f
8:00am 1ft 3s 9 11 mph 1021.9mb 60f 63f
7:50am  -   -  9 11 mph 1021.8mb - 63f
7:40am  -   -  9 11 mph 1021.7mb - 63f
7:30am  -   -  9 11 mph 1021.7mb - 62f
7:20am  -   -  9 11 mph 1021.6mb - 62f
7:10am  -   -  9 11 mph 1021.6mb - 62f
7:00am 1.3ft 4s 11
mph
1021.4mb 59f 62f
6:50am  -   -  11
mph
1021.3mb - 62f
6:40am  -   -  9 11 mph 1021.3mb - 62f
6:30am  -   -  9 11 mph 1021.2mb - 62f
6:20am  -   -  9 11 mph 1021.2mb - 62f
6:10am  -   -  9 11 mph 1021.2mb - 62f
6:00am 1.3ft 4s 9 11 mph 1021.1mb 59f 62f
5:50am  -   -  9 11 mph 1021.1mb - 62f
5:40am  -   -  9 11 mph 1021.3mb - 63f
5:30am  -   -  9 11 mph 1021.3mb - 63f
5:20am  -   -  11 13 mph 1021.3mb - 63f
5:10am  -   -  11 13 mph 1021.3mb - 63f
5:00am 1.6ft 3s 11 13 mph 1021.4mb 60f 63f
4:50am  -   -  9 11 mph 1021.5mb - 64f
4:40am  -   -  9 11 mph 1021.5mb - 64f
4:30am  -   -  9 13 mph 1021.5mb - 64f
4:20am  -   -  9 11 mph 1021.7mb - 64f
4:10am  -   -  9 11 mph 1021.8mb - 64f
4:00am 1.6ft 4s 9 11 mph 1021.7mb 60f 64f
3:50am  -   -  9 13 mph 1021.7mb - 63f
3:40am  -   -  11 13 mph 1021.8mb - 64f
3:30am  -   -  11 13 mph 1021.9mb - 64f
3:20am  -   -  9 11 mph 1022mb - 64f
3:10am  -   -  7 9 mph 1022.1mb - 63f
3:00am 2ft 4s 9 11 mph 1022.1mb 60f 64f
2:50am  -   -  9 11 mph 1022.2mb - 64f
2:40am  -   -  9 11 mph 1022.3mb - 64f
2:30am  -   -  9 11 mph 1022.5mb - 64f
2:20am  -   -  9 11 mph 1022.6mb - 64f
2:10am  -   -  9 11 mph 1022.7mb - 64f
2:00am 1.6ft 4s 9 11 mph 1022.8mb 60f 64f
1:50am  -   -  9 11 mph 1023mb - 64f
1:40am  -   -  11
mph
1023.1mb - 64f
1:30am  -   -  11 13 mph 1023.2mb - 64f
1:20am  -   -  9 11 mph 1023.2mb - 64f
1:10am  -   -  9 11 mph 1023.3mb - 63f
1:00am 1.6ft 4s 9 11 mph 1023.2mb 60f 64f
12:50am  -   -  9 11 mph 1023.2mb - 64f
12:40am  -   -  11
mph
1023.3mb - 64f
12:30am  -   -  9 11 mph 1023.4mb - 63f
12:20am  -   -  9
mph
1023.5mb - 63f
12:10am  -   -  7 9 mph 1023.6mb - 63f
12:00am 1.6ft 4s 7 9 mph 1023.7mb 60f 63f
Wed 04/19 11:50pm  -   -  7 9 mph 1023.8mb - 63f
11:40pm  -   -  9 11 mph 1023.9mb - 63f
11:30pm  -   -  11 13 mph 1023.8mb - 63f
11:20pm  -   -  11 13 mph 1023.8mb - 63f
11:10pm  -   -  13
mph
1023.9mb - 63f
11:00pm 1.6ft 4s 13 16 mph 1024mb 58f 63f
10:50pm  -   -  11 16 mph 1024mb - 62f
10:40pm  -   -  11 13 mph 1024.2mb - 62f
10:30pm  -   -  11 13 mph 1024.3mb - 62f
10:20pm  -   -  11 13 mph 1024.5mb - 62f
10:10pm  -   -  11
mph
1024.7mb - 61f
10:00pm 1.3ft 4s 11
mph
1024.9mb 58f 61f
9:50pm  -   -  11 13 mph 1024.8mb - 60f
9:40pm  -   -  13 16 mph 1024.8mb - 60f
9:30pm  -   -  11 13 mph 1025mb - 60f
9:20pm  -   -  11
mph
1025.2mb - 60f
9:10pm  -   -  11
mph
1025.2mb - 60f
9:00pm 1ft 4s 11 13 mph 1025.2mb 57f 60f
8:50pm  -   -  9 13 mph 1025.3mb - 59f
8:40pm  -   -  9 11 mph 1025.5mb - 59f
8:30pm  -   -  11 13 mph 1025.3mb - 59f
8:20pm  -   -  9 13 mph 1025.4mb - 59f
8:10pm  -   -  9 11 mph 1025.5mb - 59f
8:00pm 1.3ft 4s 9 11 mph 1025.5mb 57f 59f
7:50pm  -   -  9 11 mph 1025.6mb - 59f
7:40pm  -   -  9 11 mph 1025.6mb - 58f
7:30pm  -   -  9
mph
1025.6mb - 58f
7:20pm  -   -  7 9 mph 1025.7mb - 58f
7:10pm  -   -  7 9 mph 1025.8mb - 58f
7:00pm 1.3ft 4s 7 9 mph 1025.8mb 57f 58f